SCP
0 0 0 0 0 -0 0 0 0 0 0 0 0 0 0 0 -0 -0 -0 -0 -0 -0 -0 -0 -0 -0 -0 -0 0 0 0 0 -0 -0 0 0 0 0 0 0 0 0 0
0 0 0 0 0 0 0 0 0 0 0 0 0 0 0 0 0 0 0 0 -0 -0 -0 -0 -0 -0 -0 0 -0 0 0 0 0 0 0 0 0 0 0 0 0 0 0
0 0 0 0 0 0 -0 0 0 0 0 0 0 0 0 0 0 0 0 0 -0 -0 -0 -0 0 0 0 -0 0 0 0 0 0 0 0 0 0 0 0 0 0 0 0
0 0 0 0 0 0 0 0 0 0 0 0 0 0 0 0 0 0 0 0 0 0 0 0 0 0 0 0 0 0 0 0 0 0 0 0 0 1 0 0 0 0 0
0 0 0 0 0 0 0 0 0 0 0 0 0 0 0 0 0 0 0 0 0 0 0 0 0 0 0 0 0 0 0 0 1 0 0 0 0 1 0 0 0 0 0
1 1 1 1 1 1 1 1 0 0 0 0 0 0 0 0 0 0 0 0 0 0 0 0 0 0 0 0 0 0 0 0 0 0 0 1 1 0 0 0 0 0 0
1 1 1 1 1 1 1 1 1 1 1 1 0 0 0 0 0 0 0 0 0 1 0 0 0 0 0 0 0 0 0 0 0 0 0 0 0 0 0 0 0 0 0
1 2 2 2 1 2 2 2 2 1 1 1 1 0 0 1 0 0 0 1 1 1 1 1 0 1 0 0 0 0 0 0 0 0 0 0 0 0 0 0 0 0 0
1 1 1 2 2 2 2 2 2 3 3 2 2 1 1 0 0 0 0 1 1 0 0 0 0 0 0 0 0 0 0 0 0 0 0 0 0 0 0 0 0 0 0
0 0 1 1 1 1 2 2 3 3 3 2 2 2 1 0 0 0 0 0 0 0 0 0 0 0 0 0 0 0 0 0 0 0 0 0 0 0 0 0 0 0 0
0 -0 0 0 0 0 1 1 2 2 0 0 0 0 0 0 0 0 0 0 0 0 0 0 0 0 0 0 0 0 0 0 0 0 0 0 0 0 0 0 0 0 0
0 0 0 0 0 0 0 0 1 0 0 0 0 0 0 0 0 0 0 0 0 0 0 0 0 0 0 0 0 0 0 0 0 0 0 0 0 0 0 0 0 0 0
0 0 0 0 0 0 0 0 0 0 0 0 0 0 0 0 0 0 0 0 0 0 0 0 0 0 0 0 0 0 -0 0 0 0 0 0 0 0 0 0 0 0 0
0 0 0 0 0 0 0 0 0 0 0 0 0 0 0 0 0 0 0 0 0 0 0 0 0 0 0 0 0 0 0 0 0 0 0 0 0 0 0 0 0 0 0
0 0 0 0 0 0 0 0 0 0 0 0 0 0 0 0 0 0 0 0 0 0 0 0 0 0 0 0 0 0 0 0 0 0 0 0 0 0 0 0 0 0 0
0 0 0 0 0 0 0 0 0 0 0 0 0 -0 -0 0 0 0 0 0 0 0 0 0 0 0 0 0 0 0 0 0 0 0 0 0 0 0 0 0 0 0 0
0 0 0 0 0 0 0 0 0 0 0 0 0 0 0 0 0 0 0 0 0 0 0 0 0 0 0 0 0 0 0 0 0 0 0 0 0 0 0 0 0 0 0
0 0 0 0 0 0 0 0 0 0 0 0 0 0 0 0 0 0 0 0 0 0 0 0 0 0 0 0 0 0 0 0 0 0 0 0 0 0 0 0 0 0 0
0 0 0 0 0 0 0 0 0 0 0 0 0 0 0 0 0 0 0 0 0 0 0 0 0 0 0 0 0 0 0 0 0 0 0 0 0 0 0 0 0 0 0
0 0 0 0 0 0 0 0 0 0 0 0 0 0 0 0 0 0 0 0 0 0 0 0 0 0 0 0 0 0 0 0 0 0 0 0 0 0 0 0 0 0 0
0 0 0 0 0 0 0 0 0 0 0 0 0 0 0 0 0 0 0 0 0 0 0 0 0 0 0 0 0 0 0 0 0 0 0 0 0 0 0 0 0 0 0
0 0 0 0 0 0 0 0 0 0 0 0 0 0 0 0 0 0 0 0 0 0 0 0 0 0 0 0 0 0 0 0 0 0 0 0 0 0 0 0 0 0 0
0 0 0 0 0 0 0 0 0 0 0 0 0 0 0 0 0 0 0 0 0 0 0 0 0 0 0 0 0 0 0 0 0 0 0 0 0 0 0 0 0 0 0
0 0 0 0 0 0 0 0 0 0 0 0 0 0 0 0 0 0 0 0 0 0 0 0 0 0 0 0 0 0 0 0 0 0 0 0 0 0 0 0 0 0 0
0 0 0 0 0 0 0 0 0 0 0 0 0 0 0 0 0 0 0 0 0 0 0 0 0 0 0 0 0 0 0 0 0 0 0 0 0 0 0 0 0 0 0
0 0 0 0 0 0 0 0 0 0 0 0 0 0 0 0 0 0 0 0 0 0 0 0 0 0 0 0 0 0 0 0 0 0 0 0 0 0 0 0 0 0 0
Wind_Speed_500mb
39 39 38 36 38 38 36 33 33 30 30 24 24 24 22 19 20 21 20 17 19 17 15 13 12 15 9 16 20 11 18 16 16 16 16 15 21 17 17 20 24 20 24
38 39 41 38 37 36 37 36 34 35 31 32 26 26 25 19 19 21 18 18 18 17 14 15 13 11 15 16 10 18 15 16 16 18 18 20 18 14 16 19 15 12 15
38 40 40 41 40 40 39 37 35 37 38 28 27 31 27 21 23 23 23 19 18 19 17 18 18 15 16 12 14 12 12 14 19 19 21 19 22 23 16 18 17 15 15
36 37 39 42 43 41 39 38 36 36 36 33 31 28 27 26 24 24 25 23 22 19 21 19 18 19 20 18 15 18 16 16 18 19 19 22 19 22 15 15 17 12 9
41 36 36 35 38 40 41 40 37 36 34 37 36 40 36 30 28 25 26 21 24 23 21 20 20 23 21 24 27 24 28 23 20 23 18 18 19 13 20 20 16 17 21
29 37 35 35 35 40 42 43 44 42 40 37 37 38 37 35 38 34 30 30 28 25 22 24 24 24 27 28 30 32 32 29 24 25 22 24 21 17 17 17 20 19 15
18 26 33 35 37 37 40 42 44 46 44 44 41 37 39 37 44 43 39 35 32 31 25 23 23 22 26 28 29 30 32 31 33 34 29 27 23 24 21 18 18 20 20
12 18 30 36 35 37 41 44 44 42 44 43 40 36 36 39 43 39 39 35 34 33 33 34 32 32 35 28 24 30 32 32 25 14 19 21 20 20 20 18 15 14 14
23 24 21 22 24 26 35 39 41 46 46 44 38 37 38 40 35 37 35 38 39 41 40 40 35 28 37 24 21 28 29 23 18 16 16 14 12 10 9 7 5 5 9
14 22 25 27 30 30 28 30 40 44 46 52 50 46 44 40 36 35 35 35 31 27 26 26 21 21 25 19 17 23 20 13 5 1 5 8 9 10 8 6 4 3 5
13 10 12 20 30 34 39 43 49 50 48 42 32 32 35 36 32 32 31 27 23 18 14 15 11 15 13 10 10 11 9 6 5 7 7 9 11 14 14 14 13 14 9
10 6 15 26 23 22 31 40 43 52 57 52 56 54 28 19 17 24 26 26 20 14 10 11 9 10 9 7 6 8 5 2 5 4 6 9 9 11 13 13 12 10 10
13 6 4 7 14 22 18 19 31 44 52 55 49 46 43 33 32 30 22 19 17 14 12 7 6 4 6 9 8 5 5 7 7 8 9 9 8 8 13 15 14 15 14
18 14 4 6 6 10 5 1 16 31 38 44 45 46 41 37 37 37 31 24 21 16 17 14 11 12 10 12 12 9 8 7 8 8 10 8 9 9 8 8 5 5 4
24 19 14 11 10 16 19 26 21 17 16 21 25 34 36 36 33 28 25 24 17 15 14 15 17 13 11 13 12 11 10 10 11 11 10 9 9 7 8 9 8 7 5
16 21 20 15 10 18 20 21 25 25 24 16 16 17 21 21 21 23 23 25 22 18 20 20 18 16 15 10 11 13 14 15 14 14 11 9 7 8 7 8 8 8 8
12 17 25 17 8 14 19 25 31 29 28 29 25 22 20 25 27 26 26 25 24 22 22 23 21 19 18 19 17 14 15 15 16 13 13 11 10 10 11 9 9 10 11
9 12 22 20 21 22 17 19 21 23 26 27 24 24 25 25 25 27 28 28 28 24 17 20 19 20 20 19 17 16 15 14 14 14 12 11 11 10 9 10 10 11 12
15 13 15 20 20 22 23 23 23 24 25 23 24 27 30 32 33 34 33 21 21 22 18 18 18 17 16 18 18 17 15 14 13 12 10 10 11 10 10 9 9 17 16
16 15 17 22 19 26 27 25 24 25 26 28 33 35 39 37 32 27 18 18 16 16 17 17 17 16 17 17 17 18 15 14 11 10 9 8 9 9 6 6 6 8 10
15 18 19 20 20 21 24 23 18 20 25 25 24 30 35 22 19 18 16 14 14 14 18 18 16 16 17 17 15 13 12 10 10 11 8 7 6 4 1 4 5 7 10
16 19 20 19 19 21 22 23 25 24 24 25 24 32 33 25 22 21 19 19 19 18 17 21 19 17 15 15 14 11 9 8 8 7 9 10 11 11 9 9 9 10 12
20 22 22 21 21 24 24 22 23 25 26 25 25 29 29 22 24 23 22 20 20 20 18 17 16 14 12 11 10 11 12 12 12 14 17 19 19 18 18 19 18 18 19
20 21 21 20 19 19 19 21 22 23 23 23 24 25 26 25 25 25 24 21 19 17 16 15 14 14 15 13 15 16 18 20 21 22 27 29 28 29 32 30 27 24 22
20 22 23 20 21 22 23 22 22 22 23 23 23 24 26 26 27 26 25 24 21 20 19 19 20 22 25 24 20 19 31 36 39 43 41 31 32 31 30 29 28 26 22
23 26 25 24 26 24 21 22 22 25 28 28 28 28 28 28 27 29 30 25 23 23 23 22 22 21 20 18 23 31 39 41 33 27 28 29 31 27 25 24 23 20 21
Wind_Direction_500mb
217 218 218 221 223 228 231 237 240 243 241 244 244 243 245 257 256 258 261 260 272 267 272 278 282 278 281 304 294 288 273 274 269 296 311 309 309 299 280 305 310 318 320
222 221 224 225 224 229 231 233 237 240 241 246 252 245 250 247 252 268 268 257 260 264 262 256 264 276 282 302 291 282 279 281 283 286 304 305 308 293 300 296 293 280 293
226 225 225 227 227 228 230 231 234 240 243 240 246 248 245 255 263 267 278 268 264 260 252 251 260 265 271 261 273 274 291 288 290 294 295 300 297 302 297 304 301 277 289
225 225 227 229 228 228 228 229 230 236 237 234 239 246 246 251 257 261 262 268 262 269 263 252 260 263 267 262 259 264 287 281 286 286 295 299 296 283 301 294 292 289 265
222 224 229 231 231 228 226 226 231 234 240 238 234 248 249 249 252 254 263 265 264 260 267 270 275 263 274 275 277 271 281 278 281 287 298 295 298 289 296 287 289 282 277
227 222 227 231 231 230 227 228 230 232 235 237 237 238 236 238 248 258 256 265 262 268 268 266 267 271 274 282 281 276 275 281 293 293 291 274 278 285 296 293 292 287 289
227 220 222 226 228 229 227 224 226 230 232 237 240 237 234 236 245 251 247 255 259 265 262 261 265 266 291 289 283 275 275 281 285 286 281 276 284 284 291 303 292 286 277
213 220 225 233 236 232 228 228 226 224 225 225 232 232 230 234 244 245 245 248 256 257 259 264 270 268 278 274 272 280 287 287 285 268 273 276 276 288 297 294 290 297 290
234 231 225 222 223 227 230 232 232 231 225 222 220 221 222 239 241 241 243 245 254 265 264 265 266 263 272 268 263 278 279 278 280 276 279 289 307 324 341 334 334 313 291
249 231 233 237 231 230 231 229 226 227 220 225 224 222 230 233 237 239 241 252 258 252 257 272 271 269 281 276 259 266 266 264 249 141 49 38 16 4 7 353 326 279 265
266 245 249 268 260 248 235 234 232 227 222 223 219 216 219 226 229 237 245 248 224 229 245 260 266 277 283 254 240 250 236 211 138 78 51 55 59 57 58 63 68 74 56
234 261 251 239 236 237 243 239 239 240 237 240 240 233 227 223 221 208 198 203 208 213 217 223 253 250 247 161 199 174 143 129 91 103 97 87 64 53 55 57 59 67 85
208 209 65 193 223 223 220 234 239 238 232 230 228 227 217 206 187 190 178 182 181 184 167 190 186 168 187 133 149 160 123 125 130 121 118 103 89 66 50 35 30 37 43
215 228 234 75 125 146 105 201 221 214 204 191 188 176 174 175 170 163 163 155 160 147 148 138 118 141 137 130 124 97 112 148 140 136 112 97 67 59 44 59 60 97 60
244 248 193 165 165 126 121 106 109 119 146 159 168 164 157 152 148 151 152 159 169 171 179 159 156 150 152 152 152 150 121 113 117 114 106 95 85 69 63 61 62 65 74
190 183 186 173 162 194 186 159 145 141 141 150 161 175 169 166 170 172 174 174 177 177 170 166 166 166 171 166 153 149 140 132 122 113 106 99 92 94 71 61 63 63 48
213 185 173 174 191 199 188 192 194 197 196 192 188 180 177 180 170 170 172 169 167 168 167 166 166 166 166 156 149 153 144 143 125 119 105 96 88 80 79 77 63 62 46
197 179 176 173 184 173 168 170 174 172 171 166 166 169 168 172 170 164 157 154 154 145 158 150 149 151 153 158 156 156 147 136 132 118 111 104 102 100 89 79 65 60 47
194 206 190 179 182 177 167 173 177 179 182 180 178 166 153 147 146 144 142 137 148 148 153 146 144 154 161 156 156 155 152 150 139 132 122 114 108 94 86 79 49 54 54
198 195 208 201 197 184 176 185 182 176 165 158 155 154 147 144 143 146 146 155 156 157 159 153 153 161 159 159 154 156 163 155 146 146 138 126 116 110 81 65 48 33 12
176 174 170 169 173 171 169 164 156 149 150 144 152 157 153 144 159 158 159 159 161 167 173 167 161 153 151 152 155 157 160 165 171 167 168 184 201 203 174 13 19 2 347
169 157 145 150 152 149 155 152 151 154 158 156 161 160 155 141 161 160 154 143 142 145 152 159 157 155 165 167 166 163 178 191 203 208 220 233 249 259 273 288 302 319 328
162 158 157 154 154 164 150 155 156 159 162 160 162 167 164 163 171 163 157 158 152 147 153 147 154 166 175 187 203 217 230 243 246 251 251 253 257 263 265 277 279 286 289
183 179 175 172 166 157 159 159 161 164 163 165 173 182 182 178 178 176 174 181 182 183 190 191 199 209 224 230 246 254 261 248 251 256 259 256 258 263 266 268 272 268 266
186 182 185 186 189 179 187 186 188 186 183 184 183 181 181 182 186 191 194 198 206 215 221 229 232 239 241 241 241 241 262 275 275 269 260 254 253 255 258 265 267 256 270
202 200 197 192 186 185 187 190 196 201 202 199 198 198 198 202 205 211 214 216 225 236 241 232 231 223 219 233 245 274 282 286 283 275 256 241 241 249 252 253 255 255 268
Wind_Speed_850mb
39 39 38 36 38 38 36 33 33 30 30 24 24 24 22 19 20 21 20 17 19 17 15 13 12 15 9 16 20 11 18 16 16 16 16 15 21 17 17 20 24 20 24
38 39 41 38 37 36 37 36 34 35 31 32 26 26 25 19 19 21 18 18 18 17 14 15 13 11 15 16 10 18 15 16 16 18 18 20 18 14 16 19 15 12 15
38 40 40 41 40 40 39 37 35 37 38 28 27 31 27 21 23 23 23 19 18 19 17 18 18 15 16 12 14 12 12 14 19 19 21 19 22 23 16 18 17 15 15
36 37 39 42 43 41 39 38 36 36 36 33 31 28 27 26 24 24 25 23 22 19 21 19 18 19 20 18 15 18 16 16 18 19 19 22 19 22 15 15 17 12 9
41 36 36 35 38 40 41 40 37 36 34 37 36 40 36 30 28 25 26 21 24 23 21 20 20 23 21 24 27 24 28 23 20 23 18 18 19 13 20 20 16 17 21
29 37 35 35 35 40 42 43 44 42 40 37 37 38 37 35 38 34 30 30 28 25 22 24 24 24 27 28 30 32 32 29 24 25 22 24 21 17 17 17 20 19 15
18 26 33 35 37 37 40 42 44 46 44 44 41 37 39 37 44 43 39 35 32 31 25 23 23 22 26 28 29 30 32 31 33 34 29 27 23 24 21 18 18 20 20
12 18 30 36 35 37 41 44 44 42 44 43 40 36 36 39 43 39 39 35 34 33 33 34 32 32 35 28 24 30 32 32 25 14 19 21 20 20 20 18 15 14 14
23 24 21 22 24 26 35 39 41 46 46 44 38 37 38 40 35 37 35 38 39 41 40 40 35 28 37 24 21 28 29 23 18 16 16 14 12 10 9 7 5 5 9
14 22 25 27 30 30 28 30 40 44 46 52 50 46 44 40 36 35 35 35 31 27 26 26 21 21 25 19 17 23 20 13 5 1 5 8 9 10 8 6 4 3 5
13 10 12 20 30 34 39 43 49 50 48 42 32 32 35 36 32 32 31 27 23 18 14 15 11 15 13 10 10 11 9 6 5 7 7 9 11 14 14 14 13 14 9
10 6 15 26 23 22 31 40 43 52 57 52 56 54 28 19 17 24 26 26 20 14 10 11 9 10 9 7 6 8 5 2 5 4 6 9 9 11 13 13 12 10 10
13 6 4 7 14 22 18 19 31 44 52 55 49 46 43 33 32 30 22 19 17 14 12 7 6 4 6 9 8 5 5 7 7 8 9 9 8 8 13 15 14 15 14
18 14 4 6 6 10 5 1 16 31 38 44 45 46 41 37 37 37 31 24 21 16 17 14 11 12 10 12 12 9 8 7 8 8 10 8 9 9 8 8 5 5 4
24 19 14 11 10 16 19 26 21 17 16 21 25 34 36 36 33 28 25 24 17 15 14 15 17 13 11 13 12 11 10 10 11 11 10 9 9 7 8 9 8 7 5
16 21 20 15 10 18 20 21 25 25 24 16 16 17 21 21 21 23 23 25 22 18 20 20 18 16 15 10 11 13 14 15 14 14 11 9 7 8 7 8 8 8 8
12 17 25 17 8 14 19 25 31 29 28 29 25 22 20 25 27 26 26 25 24 22 22 23 21 19 18 19 17 14 15 15 16 13 13 11 10 10 11 9 9 10 11
9 12 22 20 21 22 17 19 21 23 26 27 24 24 25 25 25 27 28 28 28 24 17 20 19 20 20 19 17 16 15 14 14 14 12 11 11 10 9 10 10 11 12
15 13 15 20 20 22 23 23 23 24 25 23 24 27 30 32 33 34 33 21 21 22 18 18 18 17 16 18 18 17 15 14 13 12 10 10 11 10 10 9 9 17 16
16 15 17 22 19 26 27 25 24 25 26 28 33 35 39 37 32 27 18 18 16 16 17 17 17 16 17 17 17 18 15 14 11 10 9 8 9 9 6 6 6 8 10
15 18 19 20 20 21 24 23 18 20 25 25 24 30 35 22 19 18 16 14 14 14 18 18 16 16 17 17 15 13 12 10 10 11 8 7 6 4 1 4 5 7 10
16 19 20 19 19 21 22 23 25 24 24 25 24 32 33 25 22 21 19 19 19 18 17 21 19 17 15 15 14 11 9 8 8 7 9 10 11 11 9 9 9 10 12
20 22 22 21 21 24 24 22 23 25 26 25 25 29 29 22 24 23 22 20 20 20 18 17 16 14 12 11 10 11 12 12 12 14 17 19 19 18 18 19 18 18 19
20 21 21 20 19 19 19 21 22 23 23 23 24 25 26 25 25 25 24 21 19 17 16 15 14 14 15 13 15 16 18 20 21 22 27 29 28 29 32 30 27 24 22
20 22 23 20 21 22 23 22 22 22 23 23 23 24 26 26 27 26 25 24 21 20 19 19 20 22 25 24 20 19 31 36 39 43 41 31 32 31 30 29 28 26 22
23 26 25 24 26 24 21 22 22 25 28 28 28 28 28 28 27 29 30 25 23 23 23 22 22 21 20 18 23 31 39 41 33 27 28 29 31 27 25 24 23 20 21
Wind_Direction_850mb
217 218 218 221 223 228 231 237 240 243 241 244 244 243 245 257 256 258 261 260 272 267 272 278 282 278 281 304 294 288 273 274 269 296 311 309 309 299 280 305 310 318 320
222 221 224 225 224 229 231 233 237 240 241 246 252 245 250 247 252 268 268 257 260 264 262 256 264 276 282 302 291 282 279 281 283 286 304 305 308 293 300 296 293 280 293
226 225 225 227 227 228 230 231 234 240 243 240 246 248 245 255 263 267 278 268 264 260 252 251 260 265 271 261 273 274 291 288 290 294 295 300 297 302 297 304 301 277 289
225 225 227 229 228 228 228 229 230 236 237 234 239 246 246 251 257 261 262 268 262 269 263 252 260 263 267 262 259 264 287 281 286 286 295 299 296 283 301 294 292 289 265
222 224 229 231 231 228 226 226 231 234 240 238 234 248 249 249 252 254 263 265 264 260 267 270 275 263 274 275 277 271 281 278 281 287 298 295 298 289 296 287 289 282 277
227 222 227 231 231 230 227 228 230 232 235 237 237 238 236 238 248 258 256 265 262 268 268 266 267 271 274 282 281 276 275 281 293 293 291 274 278 285 296 293 292 287 289
227 220 222 226 228 229 227 224 226 230 232 237 240 237 234 236 245 251 247 255 259 265 262 261 265 266 291 289 283 275 275 281 285 286 281 276 284 284 291 303 292 286 277
213 220 225 233 236 232 228 228 226 224 225 225 232 232 230 234 244 245 245 248 256 257 259 264 270 268 278 274 272 280 287 287 285 268 273 276 276 288 297 294 290 297 290
234 231 225 222 223 227 230 232 232 231 225 222 220 221 222 239 241 241 243 245 254 265 264 265 266 263 272 268 263 278 279 278 280 276 279 289 307 324 341 334 334 313 291
249 231 233 237 231 230 231 229 226 227 220 225 224 222 230 233 237 239 241 252 258 252 257 272 271 269 281 276 259 266 266 264 249 141 49 38 16 4 7 353 326 279 265
266 245 249 268 260 248 235 234 232 227 222 223 219 216 219 226 229 237 245 248 224 229 245 260 266 277 283 254 240 250 236 211 138 78 51 55 59 57 58 63 68 74 56
234 261 251 239 236 237 243 239 239 240 237 240 240 233 227 223 221 208 198 203 208 213 217 223 253 250 247 161 199 174 143 129 91 103 97 87 64 53 55 57 59 67 85
208 209 65 193 223 223 220 234 239 238 232 230 228 227 217 206 187 190 178 182 181 184 167 190 186 168 187 133 149 160 123 125 130 121 118 103 89 66 50 35 30 37 43
215 228 234 75 125 146 105 201 221 214 204 191 188 176 174 175 170 163 163 155 160 147 148 138 118 141 137 130 124 97 112 148 140 136 112 97 67 59 44 59 60 97 60
244 248 193 165 165 126 121 106 109 119 146 159 168 164 157 152 148 151 152 159 169 171 179 159 156 150 152 152 152 150 121 113 117 114 106 95 85 69 63 61 62 65 74
190 183 186 173 162 194 186 159 145 141 141 150 161 175 169 166 170 172 174 174 177 177 170 166 166 166 171 166 153 149 140 132 122 113 106 99 92 94 71 61 63 63 48
213 185 173 174 191 199 188 192 194 197 196 192 188 180 177 180 170 170 172 169 167 168 167 166 166 166 166 156 149 153 144 143 125 119 105 96 88 80 79 77 63 62 46
197 179 176 173 184 173 168 170 174 172 171 166 166 169 168 172 170 164 157 154 154 145 158 150 149 151 153 158 156 156 147 136 132 118 111 104 102 100 89 79 65 60 47
194 206 190 179 182 177 167 173 177 179 182 180 178 166 153 147 146 144 142 137 148 148 153 146 144 154 161 156 156 155 152 150 139 132 122 114 108 94 86 79 49 54 54
198 195 208 201 197 184 176 185 182 176 165 158 155 154 147 144 143 146 146 155 156 157 159 153 153 161 159 159 154 156 163 155 146 146 138 126 116 110 81 65 48 33 12
176 174 170 169 173 171 169 164 156 149 150 144 152 157 153 144 159 158 159 159 161 167 173 167 161 153 151 152 155 157 160 165 171 167 168 184 201 203 174 13 19 2 347
169 157 145 150 152 149 155 152 151 154 158 156 161 160 155 141 161 160 154 143 142 145 152 159 157 155 165 167 166 163 178 191 203 208 220 233 249 259 273 288 302 319 328
162 158 157 154 154 164 150 155 156 159 162 160 162 167 164 163 171 163 157 158 152 147 153 147 154 166 175 187 203 217 230 243 246 251 251 253 257 263 265 277 279 286 289
183 179 175 172 166 157 159 159 161 164 163 165 173 182 182 178 178 176 174 181 182 183 190 191 199 209 224 230 246 254 261 248 251 256 259 256 258 263 266 268 272 268 266
186 182 185 186 189 179 187 186 188 186 183 184 183 181 181 182 186 191 194 198 206 215 221 229 232 239 241 241 241 241 262 275 275 269 260 254 253 255 258 265 267 256 270
202 200 197 192 186 185 187 190 196 201 202 199 198 198 198 202 205 211 214 216 225 236 241 232 231 223 219 233 245 274 282 286 283 275 256 241 241 249 252 253 255 255 268